STARLINK-1764 (46343 NORAD) Tracking and Keplerian Element Data

This shows tracking and keplerian element data for the satellite.

Feedback or suggestion? Click here.




ElementValue
Catalog46343
NameSTARLINK-1764
Epoch Orbit178
Epoch Day268.91668981
Epoch Year2020
RAAN323.798
Inclination53.0016
Eccentricity0.00014
Argument of Perigee65.5256
Mean Anonmoly122.5623
Mean Motion15.62786286
Decay Rate0.00028018
L11 46343U 20062U 20268.91668981 .00028018 00000-0 31036-3 0 9991
L22 46343 53.0016 323.7980 0001400 65.5256 122.5623 15.62786286 1781

Live tracking and technical data element details for STARLINK-1764 (NORAD 46343). STARLINK-1764 can be tracked NOW for your location showing map with azimuth and elevation plus other details from your city location.

Track the satellite on the map from your city or location and see movement details for azimuth, elevation, latitude, longitude, range, height, and movement on the map or in text.







IsCatalogInMostPopularTable: catalog: 46343, numindb: 5
Update: records affected: 1



GetName: 46343 STARLINK-1764

Hit Count: updated at: Mon, 28 Sep 2020 21:33:31 GMT